[[{"header":{"parameterUnit":"m.s-1","parameterCategory":1,"la1":30.2991,"la2":30.254,"lo1":-89.0895,"lo2":-89.0444,"dy":0.0017,"dx":0.0017,"nx":28,"ny":28,"refTime":"2024-06-26T03:00:00:Z","depth":0,"parameterNumber":2,"parameterNumberName":"U-component_of_WINDS"},"data":[0,0,0,0,0,0,0,0,0,0,0,0,0,0,0,0,0,0,0,0,0,0,0,0,0,0,0,0,0,0,0,0,0,0,0,0,0,0,0,0,0,0,0,0,0,0,0,0,0,0,0,0,0,0,0,0,0,0,5.8267,5.8268,0,5.8427,5.8428,5.843,5.8366,5.8362,5.8358,5.8355,5.8522,5.853,5.8538,0,0,0,0,0,0,0,0,0,0,0,0,0,5.7908,5.7915,5.8266,5.8268,5.827,5.8426,5.8429,5.8431,5.8367,5.8362,5.8357,5.8353,5.852,5.8529,5.8539,0,0,0,0,0,0,0,0,0,0,0,0,0,5.8066,5.7917,5.8266,5.8257,5.8258,5.8426,5.8429,5.8431,5.8368,5.8362,5.8356,5.8351,5.8516,5.8528,5.854,5.8727,0,0,5.8576,5.8582,0,0,0,0,0,0,0,0,5.8057,5.8079,5.8256,5.8258,5.8259,5.837,5.8364,5.8531,5.8369,5.8326,5.8355,5.8348,5.8477,5.8491,5.8534,5.8735,5.8742,5.8578,5.8585,5.859,5.8593,0,0,0,0,0,0,0,5.8046,5.8072,5.833,5.8259,5.8261,5.8246,5.8262,5.8395,5.8431,5.8329,5.8325,5.8345,5.8476,5.8523,5.8537,5.8745,5.8577,5.8588,5.8595,5.86,5.9108,5.9114,0,0,0,0,0,0,5.8034,5.8063,5.8325,5.8335,5.8142,5.8257,5.8275,5.834,5.843,5.8438,5.8349,5.8341,5.8505,5.8524,5.8543,5.8768,5.859,5.8601,5.8608,5.9102,5.911,5.9117,0,0,0,0,0,0,5.8027,5.8058,5.8318,5.8198,5.823,5.8269,5.8343,5.8347,5.8393,5.8445,5.8451,5.839,5.8501,5.8526,5.8682,5.8773,5.8606,5.8617,5.9095,5.9104,5.9113,5.9221,0,0,0,0,0,0,5.8017,5.8056,5.8127,5.82,5.8236,5.8454,5.8349,5.8354,5.8413,5.8404,5.8484,5.8492,5.8499,5.8664,5.8694,5.8787,5.8627,5.9087,5.9099,5.911,5.9209,5.9233,5.9253,0,0,0,0,0,5.8004,5.8151,5.8131,5.8163,5.8326,5.8459,5.848,5.8483,5.8421,5.8493,5.8526,5.849,5.8759,5.8681,5.8713,5.8811,5.9081,5.9095,5.9109,5.9199,5.9228,5.9252,0,0,0,0,0,0,5.8089,5.8161,5.8139,5.8313,5.8381,5.8448,5.8539,5.8514,5.8601,5.8588,5.859,5.8609,5.8769,5.8806,5.8718,5.8998,5.891,5.8932,5.8968,5.8996,5.9017,5.9005,5.8637,0,0,0,0,0,5.8128,5.8229,5.8287,5.8436,5.847,5.8499,5.8557,5.8554,5.8624,5.8652,5.8697,5.8767,5.8867,5.8934,5.9029,5.9214,5.9231,5.9298,5.932,5.9337,5.9356,5.9457,5.9488,5.9163,5.9163,5.9163,0,0,5.821,5.8261,5.8325,5.8454,5.8505,5.8611,5.8523,5.8639,5.8718,5.867,5.8819,5.8855,5.8934,5.9105,5.9183,5.9141,5.9449,5.9356,5.9369,5.9378,5.9475,5.9506,5.9533,5.9173,5.9171,5.917,0,0,5.8412,5.8461,5.8591,5.8644,5.8723,5.8741,5.8772,5.8844,5.8865,5.9015,5.8981,5.9076,5.9249,5.9306,5.9358,5.9583,5.9553,5.9614,5.9728,5.9827,5.9853,5.9875,5.9956,5.9985,5.9633,5.9633,5.9633,0,5.8504,5.8661,5.8661,5.8779,5.8837,5.8798,5.893,5.8982,5.9088,5.913,5.9081,5.9297,5.9347,5.9531,5.9586,5.963,5.9666,5.9605,5.9849,5.9872,5.9893,5.997,6.0,5.964,5.9639,5.9638,5.9638,0,5.877,5.888,5.8975,5.9078,5.9146,5.9271,5.9291,5.936,5.9352,5.9375,5.9529,5.9588,5.9694,5.9738,5.9731,5.9922,5.9893,5.9847,5.9759,5.993,6.0003,6.0032,5.965,5.9647,5.9645,5.9643,0,0,5.9031,5.9131,5.9166,5.9212,5.9297,5.9382,5.9506,5.9609,5.9669,5.9744,5.9848,5.9995,5.9953,6.0012,6.0011,6.0097,6.0272,6.004,6.0042,6.0081,6.0487,6.0521,6.0555,6.0253,6.0259,6.0263,6.048,0,5.924,5.9454,5.9458,5.9656,5.9757,5.9722,5.9829,5.9894,5.9919,6.001,6.0039,6.0143,6.0079,6.0115,6.0199,6.0233,6.0354,6.0218,6.0351,6.0355,6.0331,6.0593,6.063,6.0832,6.0509,6.0514,6.0517,0,5.9512,5.9595,5.9803,5.9872,5.9915,6.0012,6.0106,6.0194,6.0266,6.0279,6.0345,6.0331,6.0458,6.0367,6.0542,6.0449,6.0504,6.0529,6.0537,6.055,6.0446,6.0613,6.0896,6.0927,6.0562,6.0558,6.0555,0,5.9681,5.9845,5.999,6.0031,6.0116,6.0185,6.0224,6.029,6.0352,6.0436,6.0476,6.0574,6.0627,6.0704,6.0718,6.0649,6.0894,6.0803,6.0909,6.0909,6.0961,6.0958,6.1258,6.0997,6.0997,6.0996,6.0996,0,5.9914,6.0043,6.0067,6.0157,6.03,6.0303,6.0445,6.0479,6.0539,6.0635,6.0611,6.0702,6.0714,6.0809,6.082,6.0964,6.0989,6.1003,6.1005,6.1005,6.1003,6.1041,6.1027,6.1004,6.1003,6.1001,6.1,0,6.0127,6.0149,6.0305,6.0372,6.0392,6.0495,6.0553,6.064,6.0663,6.0785,6.0814,6.0851,6.0961,6.0982,6.1112,6.112,6.1292,6.1279,6.1267,6.1265,6.1369,6.1359,6.1704,6.175,6.1459,6.1462,6.1464,0,6.0275,6.0372,6.045,6.0512,6.0554,6.0655,6.0718,6.0725,6.0792,6.0882,6.0958,6.1065,6.1151,6.1329,6.1368,6.1468,6.1458,6.1572,6.1473,6.147,6.146,6.1453,6.1463,6.1591,6.1594,6.1596,6.1599,0,6.0534,6.0539,6.063,6.0725,6.08,6.0876,6.0948,6.1,6.1017,6.1094,6.1205,6.1272,6.1405,6.1512,6.1612,6.1653,6.163,6.1629,6.1659,6.1661,6.1649,6.1657,6.1318,6.1621,6.1619,6.1617,6.1616,6.1615,6.0718,6.0804,6.0872,6.0974,6.1028,6.1096,6.118,6.1213,6.1306,6.1414,6.1413,6.1536,6.1606,6.1737,6.1785,6.1882,6.1846,6.1889,6.19,6.191,6.192,6.1634,6.19,6.19,6.1899,6.1898,6.1898,0,6.0976,6.1018,6.1112,6.1212,6.1293,6.1262,6.134,6.141,6.1518,6.1585,6.167,6.1799,6.1903,6.195,6.2053,6.2121,6.2113,6.2148,6.2143,6.2153,6.1946,6.191,6.2153,6.2153,6.2153,6.2153,6.2153,6.2153,6.112,6.1262,6.1276,6.1446,6.1487,6.1606,6.1653,6.1716,6.1769,6.1914,6.1999,6.2029,6.2089,6.2196,6.2291,6.2302,6.2341,6.2381,6.2388,6.2193,6.2168,6.2143,6.2109,6.239,6.239,6.2586,6.2588,6.2589]},{"header":{"parameterUnit":"m.s-1","parameterCategory":1,"la1":30.2991,"la2":30.254,"lo1":-89.0895,"lo2":-89.0444,"dy":0.0017,"dx":0.0017,"nx":28,"ny":28,"refTime":"2024-06-26T03:00:00:Z","depth":0,"parameterNumber":3,"parameterNumberName":"V-component_of_WINDS"},"data":[0,0,0,0,0,0,0,0,0,0,0,0,0,0,0,0,0,0,0,0,0,0,0,0,0,0,0,0,0,0,0,0,0,0,0,0,0,0,0,0,0,0,0,0,0,0,0,0,0,0,0,0,0,0,0,0,0,0,-0.8918,-0.8919,0,-0.9016,-0.9017,-0.9019,-0.9094,-0.9095,-0.9096,-0.9096,-0.9195,-0.9197,-0.9199,0,0,0,0,0,0,0,0,0,0,0,0,0,-0.8795,-0.8797,-0.8918,-0.8919,-0.8921,-0.9016,-0.9017,-0.9019,-0.9094,-0.9095,-0.9096,-0.9097,-0.9194,-0.9197,-0.9199,0,0,0,0,0,0,0,0,0,0,0,0,0,-0.8866,-0.8798,-0.8918,-0.897,-0.8975,-0.9016,-0.9018,-0.9019,-0.9094,-0.9095,-0.9096,-0.9097,-0.9194,-0.9196,-0.9199,-0.9196,0,0,-0.9208,-0.9209,0,0,0,0,0,0,0,0,-0.8862,-0.8871,-0.8961,-0.8966,-0.8973,-0.9044,-0.901,-0.9078,-0.9094,-0.9049,-0.9096,-0.9098,-0.9144,-0.9151,-0.9167,-0.92,-0.9204,-0.9208,-0.921,-0.9211,-0.9212,0,0,0,0,0,0,0,-0.8857,-0.8867,-0.8957,-0.8962,-0.8969,-0.8988,-0.8999,-0.9024,-0.9089,-0.9053,-0.9059,-0.9069,-0.9147,-0.9164,-0.917,-0.9206,-0.9208,-0.9211,-0.9213,-0.9214,-0.9241,-0.924,0,0,0,0,0,0,-0.8844,-0.8862,-0.8954,-0.896,-0.8919,-0.8989,-0.9002,-0.902,-0.9089,-0.9101,-0.9068,-0.9072,-0.9158,-0.9166,-0.9173,-0.9173,-0.9211,-0.9214,-0.9216,-0.9242,-0.9241,-0.924,0,0,0,0,0,0,-0.8841,-0.8852,-0.895,-0.8913,-0.8927,-0.899,-0.901,-0.9021,-0.9038,-0.9101,-0.9112,-0.9073,-0.9159,-0.9169,-0.919,-0.9178,-0.9216,-0.9218,-0.9243,-0.9242,-0.924,-0.9173,0,0,0,0,0,0,-0.8838,-0.885,-0.885,-0.8912,-0.8928,-0.8964,-0.9009,-0.9023,-0.9043,-0.905,-0.9108,-0.9119,-0.9161,-0.9185,-0.9192,-0.9182,-0.922,-0.9245,-0.9243,-0.9241,-0.9176,-0.9169,-0.9163,0,0,0,0,0,-0.8833,-0.8827,-0.8849,-0.886,-0.8929,-0.8964,-0.8973,-0.9022,-0.9042,-0.9042,-0.9082,-0.9117,-0.9178,-0.9186,-0.9196,-0.9186,-0.9246,-0.9243,-0.9241,-0.9179,-0.9171,-0.9163,0,0,0,0,0,0,-0.876,-0.8836,-0.8862,-0.8875,-0.8913,-0.8976,-0.8978,-0.9011,-0.9043,-0.9047,-0.9106,-0.9119,-0.9132,-0.9162,-0.9169,-0.9186,-0.9216,-0.9216,-0.9166,-0.9159,-0.9152,-0.9144,-0.9223,0,0,0,0,0,-0.8746,-0.8768,-0.8833,-0.8839,-0.8856,-0.8913,-0.893,-0.8965,-0.9006,-0.9021,-0.9063,-0.9101,-0.9129,-0.9145,-0.9174,-0.9182,-0.9195,-0.918,-0.9173,-0.9167,-0.9166,-0.9171,-0.9165,-0.9232,-0.9232,-0.9232,0,0,-0.8716,-0.876,-0.8771,-0.8825,-0.8858,-0.8879,-0.8926,-0.8947,-0.8963,-0.9025,-0.9046,-0.9078,-0.9124,-0.9137,-0.9146,-0.9162,-0.915,-0.9164,-0.9159,-0.9161,-0.9168,-0.9162,-0.9156,-0.9231,-0.9231,-0.9231,0,0,-0.8673,-0.8709,-0.8717,-0.875,-0.8799,-0.8838,-0.8839,-0.8899,-0.8922,-0.8945,-0.8992,-0.9012,-0.9058,-0.9089,-0.9111,-0.908,-0.9113,-0.9088,-0.9052,-0.9057,-0.9052,-0.9047,-0.9035,-0.903,-0.9086,-0.9086,-0.9086,0,-0.8629,-0.8664,-0.8717,-0.8735,-0.8758,-0.8816,-0.8824,-0.8853,-0.8909,-0.8923,-0.8941,-0.9001,-0.9036,-0.9057,-0.905,-0.9066,-0.9069,-0.9081,-0.9048,-0.9044,-0.9041,-0.903,-0.9026,-0.9083,-0.9083,-0.9083,-0.9084,0,-0.8608,-0.8631,-0.8632,-0.8685,-0.8708,-0.8721,-0.8776,-0.8793,-0.8825,-0.8862,-0.8884,-0.8928,-0.8967,-0.8975,-0.9007,-0.9001,-0.901,-0.9037,-0.9069,-0.903,-0.9021,-0.9017,-0.9078,-0.9079,-0.908,-0.9081,0,0,-0.852,-0.8603,-0.8603,-0.8628,-0.8687,-0.8705,-0.8721,-0.876,-0.8773,-0.881,-0.8824,-0.8862,-0.8888,-0.8913,-0.8949,-0.8953,-0.8925,-0.8981,-0.8983,-0.8968,-0.892,-0.8898,-0.8892,-0.8948,-0.8948,-0.8947,-0.8916,0,-0.8485,-0.8517,-0.8566,-0.8581,-0.8603,-0.8659,-0.8673,-0.871,-0.8745,-0.8768,-0.8806,-0.8832,-0.8865,-0.888,-0.8887,-0.8927,-0.8916,-0.893,-0.8961,-0.8962,-0.8946,-0.8888,-0.8865,-0.8833,-0.8913,-0.8912,-0.8912,0,-0.8448,-0.8483,-0.85,-0.8558,-0.8569,-0.858,-0.862,-0.8642,-0.8685,-0.871,-0.8738,-0.8777,-0.8797,-0.8826,-0.8853,-0.8861,-0.8877,-0.8899,-0.8899,-0.8902,-0.8933,-0.8889,-0.8824,-0.8819,-0.8907,-0.8907,-0.8908,0,-0.8381,-0.8432,-0.8449,-0.8469,-0.8537,-0.8544,-0.8572,-0.8617,-0.8637,-0.8672,-0.8685,-0.8721,-0.874,-0.8767,-0.8815,-0.8832,-0.8837,-0.887,-0.8857,-0.8856,-0.8854,-0.8853,-0.879,-0.8866,-0.8866,-0.8866,-0.8867,0,-0.8337,-0.8345,-0.842,-0.843,-0.8441,-0.8498,-0.8507,-0.8541,-0.858,-0.8598,-0.8649,-0.8664,-0.8727,-0.875,-0.8787,-0.8804,-0.8812,-0.8832,-0.8842,-0.8827,-0.8824,-0.8837,-0.884,-0.8865,-0.8866,-0.8866,-0.8866,0,-0.8263,-0.8314,-0.8336,-0.8399,-0.8415,-0.842,-0.8474,-0.8486,-0.8524,-0.8545,-0.8553,-0.8613,-0.8642,-0.8693,-0.8737,-0.8762,-0.877,-0.8788,-0.8755,-0.8761,-0.8745,-0.8745,-0.8686,-0.8681,-0.8761,-0.8761,-0.876,0,-0.823,-0.8238,-0.8302,-0.8317,-0.8344,-0.8369,-0.839,-0.8446,-0.8465,-0.8516,-0.8522,-0.8555,-0.8585,-0.8629,-0.8675,-0.8709,-0.8727,-0.8704,-0.8732,-0.8717,-0.8726,-0.8724,-0.8725,-0.8697,-0.8696,-0.8695,-0.8694,0,-0.8167,-0.8191,-0.822,-0.8257,-0.8281,-0.8313,-0.8347,-0.8357,-0.8421,-0.844,-0.8471,-0.8494,-0.8539,-0.8571,-0.8612,-0.8641,-0.8678,-0.8685,-0.8684,-0.8668,-0.8648,-0.8658,-0.8737,-0.8686,-0.8687,-0.8687,-0.8688,-0.8688,-0.8112,-0.8121,-0.8168,-0.8198,-0.823,-0.8261,-0.8275,-0.8315,-0.8342,-0.8383,-0.8415,-0.8443,-0.8487,-0.8545,-0.8572,-0.8595,-0.8612,-0.861,-0.861,-0.8608,-0.8601,-0.8646,-0.8603,-0.8603,-0.8603,-0.8604,-0.8604,0,-0.805,-0.8083,-0.811,-0.8157,-0.818,-0.8214,-0.8254,-0.8271,-0.8295,-0.8334,-0.8362,-0.8397,-0.8429,-0.8478,-0.8514,-0.8522,-0.854,-0.853,-0.8529,-0.8535,-0.8585,-0.8582,-0.8515,-0.8515,-0.8515,-0.8515,-0.8515,-0.8515,-0.802,-0.8038,-0.8068,-0.8102,-0.8135,-0.8163,-0.8183,-0.8212,-0.8243,-0.828,-0.8307,-0.8339,-0.8382,-0.8421,-0.8451,-0.8465,-0.8475,-0.8459,-0.8478,-0.8523,-0.8531,-0.8539,-0.8537,-0.8461,-0.8461,-0.8426,-0.8426,-0.8425]}]]